McComb, MS

11:50 PM CDT on July 25, 2017 (GMT -0500)
McComb-Pike County-Lewis

Weather History for KMCB - August, 2014

Change the Weather History Date:

Saturday, August 30, 2014

  Actual Average Record
Temperature  
Mean Temperature 78 °F -  
Max Temperature 84 °F 91 °F 100 °F (1951)
Min Temperature 73 °F 68 °F 56 °F (1992)
Cooling Degree Days 14    
Growing Degree Days 28 (Base 50)    
Moisture  
Dew Point 73 °F    
Average Humidity 91    
Maximum Humidity 97    
Minimum Humidity 72    
Precipitation  
Precipitation 0.64 in - - ()
Sea Level Pressure  
Sea Level Pressure 30.04 in    
Wind  
Wind Speed 6 mph (SSE)    
Max Wind Speed 17 mph    
Max Gust Speed 34 mph    
Visibility 8 miles    
Events Rain , Thunderstorm    
Averages and records for this station are not official NWS values.
T = Trace of Precipitation, MM = Missing Value Source: NWS Daily Summary

Daily Weather History Graph

Daily Weather History Graph

Search for Another Location

Airport or City:

Trip Planner

Search our weather history database for the weather conditions in past years. The results will help you decide how hot, cold, wet, or windy it might be!

Date:

Astronomy

Aug. 30, 2014 Rise Set
Actual Time 6:36 AM CDT 7:27 PM CDT
Civil Twilight 6:11 AM CDT 7:52 PM CDT
Nautical Twilight 5:42 AM CDT 8:21 PM CDT
Astronomical Twilight 5:12 AM CDT 8:51 PM CDT
Moon 11:03 AM CDT (8/30) 10:23 PM CDT (8/30)
Length of Visible Light 13h 40m
Length of Day
12h 50m
Waxing Crescent, 23% of the Moon is Illuminated
Aug 30
Waxing Crescent
Sep 2
First Quarter
Sep 8
Full
Sep 15
Last Quarter
Sep 24
New

Hourly Weather History & Observations

Time (CDT) Temp. Heat Index Dew Point Humidity Pressure Visibility Wind Dir Wind Speed Gust Speed Precip Events Conditions
12:45 AM 75.0 °F - 73.0 °F 94% 30.04 in 10.0 mi SSE 4.6 mph - N/A   Scattered Clouds
12:53 AM 75.0 °F - 73.0 °F 94% 30.02 in 10.0 mi SE 4.6 mph - N/A   Scattered Clouds
1:15 AM 75.0 °F - 73.0 °F 94% 30.03 in 10.0 mi SSE 3.5 mph - N/A   Mostly Cloudy
1:20 AM 75.0 °F - 73.0 °F 94% 30.03 in 10.0 mi SSE 5.8 mph - N/A   Mostly Cloudy
1:53 AM 75.0 °F - 73.0 °F 94% 30.00 in 7.0 mi SE 4.6 mph - N/A   Partly Cloudy
2:53 AM 75.0 °F - 72.0 °F 90% 30.00 in 10.0 mi SE 3.5 mph - N/A   Partly Cloudy
3:53 AM 75.0 °F - 73.0 °F 94% 30.01 in 10.0 mi Calm Calm - N/A   Partly Cloudy
4:16 AM 75.0 °F - 73.0 °F 94% 30.02 in 10.0 mi Calm Calm - N/A   Scattered Clouds
4:25 AM 75.0 °F - 73.0 °F 94% 30.02 in 10.0 mi Calm Calm - N/A   Mostly Cloudy
4:43 AM 75.0 °F - 73.0 °F 94% 30.02 in 9.0 mi Calm Calm - N/A   Overcast
4:53 AM 75.0 °F - 73.0 °F 94% 30.01 in 6.0 mi Calm Calm - N/A   Overcast
5:19 AM 75.0 °F - 73.0 °F 94% 30.02 in 2.5 mi East 3.5 mph - N/A   Overcast
5:27 AM 75.0 °F - 73.0 °F 94% 30.02 in 4.0 mi East 3.5 mph - N/A   Overcast
5:53 AM 75.0 °F - 73.0 °F 94% 29.99 in 6.0 mi East 3.5 mph - N/A   Overcast
6:17 AM 75.0 °F - 73.0 °F 94% 30.01 in 9.0 mi East 5.8 mph - N/A   Scattered Clouds
6:46 AM 75.0 °F - 73.9 °F 96% 30.01 in 7.0 mi ESE 5.8 mph - N/A   Mostly Cloudy
6:53 AM 75.0 °F - 73.9 °F 96% 29.99 in 6.0 mi ESE 5.8 mph - N/A   Mostly Cloudy
7:53 AM 75.9 °F - 73.9 °F 94% 30.01 in 9.0 mi ESE 6.9 mph - N/A   Overcast
8:20 AM 78.1 °F - 75.0 °F 90% 30.03 in 8.0 mi SE 6.9 mph - N/A   Overcast
8:53 AM 79.0 °F - 75.0 °F 88% 30.01 in 9.0 mi SE 9.2 mph - N/A   Overcast
9:21 AM 81.0 °F 86.7 °F 75.0 °F 82% 30.04 in 10.0 mi SE 10.4 mph - N/A   Mostly Cloudy
9:46 AM 82.9 °F 90.2 °F 75.0 °F 77% 30.05 in 10.0 mi South 10.4 mph - N/A   Scattered Clouds
9:53 AM 82.9 °F 90.2 °F 75.0 °F 77% 30.04 in 10.0 mi SSE 11.5 mph - N/A   Scattered Clouds
10:13 AM 82.9 °F 89.4 °F 73.9 °F 74% 30.05 in 10.0 mi South 10.4 mph - N/A   Mostly Cloudy
10:46 AM 84.0 °F 91.2 °F 73.9 °F 72% 30.04 in 10.0 mi South 8.1 mph - N/A   Mostly Cloudy
10:53 AM 82.9 °F 89.4 °F 73.9 °F 74% 30.02 in 9.0 mi SSE 6.9 mph - 0.00 in Rain Light Rain
11:04 AM 79.0 °F - 73.9 °F 84% 30.04 in 2.5 mi South 17.3 mph 23.0 mph 0.05 in Rain Light Rain
11:11 AM 78.1 °F - 71.1 °F 79% 30.04 in 1.0 mi South 11.5 mph - 0.18 in Rain Heavy Rain
11:29 AM 77.0 °F - 73.0 °F 88% 30.05 in 10.0 mi SE 3.5 mph - 0.19 in Rain , Thunderstorm Light Thunderstorms and Rain
11:49 AM 77.0 °F - 73.4 °F 89% 30.05 in 9.0 mi SE 3.5 mph - 0.19 in Rain Light Rain
11:53 AM 77.0 °F - 73.9 °F 90% 30.04 in 6.0 mi South 4.6 mph - 0.20 in Rain Light Rain
12:22 PM 73.9 °F - 70.0 °F 87% 30.07 in 4.0 mi South 17.3 mph 34.5 mph 0.03 in Rain , Thunderstorm Rain
12:32 PM 73.0 °F - 71.1 °F 93% 30.09 in 3.0 mi South 9.2 mph - 0.06 in Rain , Thunderstorm Rain
12:43 PM 73.9 °F - 71.1 °F 91% 30.09 in 3.0 mi SSW 11.5 mph 19.6 mph 0.09 in Rain , Thunderstorm Thunderstorms and Rain
12:53 PM 73.9 °F - 71.1 °F 91% 30.08 in 3.0 mi SSW 12.7 mph 21.9 mph 0.13 in Rain Rain
12:59 PM 73.0 °F - 71.1 °F 93% 30.10 in 2.5 mi SSW 15.0 mph 23.0 mph 0.03 in Rain Rain
1:03 PM 73.0 °F - 71.1 °F 93% 30.09 in 1.8 mi SSW 12.7 mph 23.0 mph 0.06 in Rain Heavy Rain
1:16 PM 73.0 °F - 71.1 °F 93% 30.08 in 2.0 mi South 9.2 mph - 0.14 in Rain Rain
1:24 PM 73.9 °F - 71.1 °F 91% 30.08 in 5.0 mi South 8.1 mph - 0.15 in Rain Rain
1:53 PM 73.0 °F - 71.1 °F 93% 30.05 in 5.0 mi South 8.1 mph - 0.24 in Rain Light Rain
1:59 PM 73.0 °F - 71.1 °F 93% 30.06 in 8.0 mi South 9.2 mph - 0.00 in Rain Light Rain
2:07 PM 73.9 °F - 71.1 °F 91% 30.06 in 10.0 mi South 10.4 mph - 0.00 in Rain Light Rain
2:53 PM 73.9 °F - 72.0 °F 93% 30.06 in 9.0 mi South 10.4 mph - 0.02 in Rain Light Rain
3:53 PM 75.0 °F - 72.0 °F 90% 30.02 in 10.0 mi SSE 11.5 mph - 0.02 in   Overcast
4:53 PM 75.0 °F - 73.0 °F 94% 30.01 in 10.0 mi South 6.9 mph - N/A   Mostly Cloudy
5:53 PM 75.0 °F - 73.0 °F 94% 30.01 in 10.0 mi South 6.9 mph - 0.01 in Rain Light Rain
6:38 PM 75.0 °F - 73.0 °F 94% 30.03 in 8.0 mi SSE 9.2 mph - 0.01 in Rain Light Rain
6:53 PM 73.9 °F - 73.0 °F 97% 30.02 in 10.0 mi South 8.1 mph - 0.02 in   Mostly Cloudy
7:39 PM 73.9 °F - 72.0 °F 93% 30.04 in 10.0 mi SSE 6.9 mph - 0.00 in Rain Light Rain
7:53 PM 73.9 °F - 72.0 °F 93% 30.03 in 10.0 mi South 8.1 mph - 0.00 in   Partly Cloudy
8:53 PM 73.9 °F - 72.0 °F 93% 30.02 in 10.0 mi South 4.6 mph - N/A   Clear
9:04 PM 73.9 °F - 72.0 °F 93% 30.04 in 10.0 mi South 5.8 mph - N/A   Partly Cloudy
9:53 PM 73.9 °F - 72.0 °F 93% 30.04 in 10.0 mi Calm Calm - N/A   Mostly Cloudy
10:53 PM 73.0 °F - 72.0 °F 96% 30.04 in 10.0 mi Calm Calm - N/A   Mostly Cloudy
11:10 PM 73.0 °F - 72.0 °F 96% 30.06 in 9.0 mi SE 4.6 mph - N/A   Partly Cloudy
11:53 PM 73.0 °F - 72.0 °F 96% 30.04 in 10.0 mi Calm Calm - N/A   Mostly Cloudy